Retour au catalogue

STARLINK-2123

ActifCommunicationsVLEO
NORAD 47401·PAYLOAD·🇺🇸 United States

Lancé Jan 20, 2021 depuis Cape Canaveral Space Force Station

Loading…

Prochains Passages (prochaines 24 heures)

TLE

FraisSource: CelesTrak SupGP

Époque: Sep 15, 2026, 02:41 UTC

1 47401C 21005BE  26258.11229167 -.00021242  00000+0 -68321-3 0  2589
2 47401  53.1588 235.4307 0001433  96.0792 172.3528 15.31706381    10

Suivez STARLINK-2123 en temps réel avec AllMySat

Download on the App Store